Simultaneous Nadir Overpasses (SNOs) Predictions

Prediction of SNOs between GOES-14 and AQUA Satellite Orbit:

Table of predicted SNOs for the next 14.0 days since TLE Epoch: 8/16/2019
Index Date Time (GOES-14) GOES-14 Lat,Lon AQUA Lat,Lon Distance(km) Time Diff (sec)
1 08/17/2019 20:20:18 -0.37,-104.60 0.39,-100.93 416.93 80
2 08/18/2019 08:41:34 0.38,-104.42 0.71,-106.09 188.88 80
3 08/20/2019 08:26:42 0.38,-104.39 0.13,-103.12 143.93 80
4 08/20/2019 20:48:07 -0.38,-104.55 -1.17,-108.33 429.62 80
5 08/22/2019 08:14:31 0.37,-104.37 -0.50,-100.17 476.69 80
6 08/22/2019 20:35:56 -0.38,-104.52 -0.54,-105.37 96.55 80
7 08/24/2019 20:26:25 -0.37,-104.49 0.09,-102.42 236.09 80
8 08/25/2019 08:47:40 0.38,-104.34 1.06,-107.57 366.82 80
9 08/27/2019 08:35:29 0.37,-104.30 0.42,-104.61 35.08 80
10 08/29/2019 08:20:38 0.37,-104.26 -0.21,-101.66 296.61 80
11 08/29/2019 20:42:02 -0.37,-104.39 -0.90,-106.85 280.37 80




NCC Satellite Simultaneous Nadir Overpasses (SNOs) Prediction Service
